Regional Weather Roundup
Issued by NWS Newport/Morehead, NC

Current Version | Previous Version | Graphics & Text | Print | Product List | Glossary On
Versions: 1 2 3 4 5 6 7 8 9 10 11 12 13 14 15 16 17 18 19 20 21 22 23 24 25 26 27 28 29 30 31 32 33 34 35 36 37 38 39 40 41 42 43 44 45 46 47 48 49 50
000 ASUS42 KMHX 261713 RWRMHX WEATHER ROUNDUP FOR EASTERN NORTH CAROLINA NATIONAL WEATHER SERVICE NEWPORT/MOREHEAD CITY NC 100 PM EDT TUE JUL 26 2016 NOTE: "FAIR" INDICATES FEW OR NO CLOUDS BELOW 12,000 FEET WITH NO SIGNIFICANT WEATHER AND/OR OBSTRUCTIONS TO VISIBILITY NCZ015>017-031-032-045>047-102-103-261800- NORTH COAST CITY SKY/WX TMP DP RH WIND PRES REMARKS EDENTON SUNNY 92 76 58 SW6 29.97F HX 104 ELIZABETH CITY SUNNY 92 76 59 W10 29.96F HX 104 KITTY HAWK SUNNY 94 75 54 W6 29.96S HX 106 MANTEO N/A 91 77 65 W7 29.97F HX 104 $$ NCZ045>047-081-094-103-104-261800- CENTRAL COAST CITY SKY/WX TMP DP RH WIND PRES REMARKS FRISCO SUNNY 84 77 79 SW13G22 29.99F $$ NCZ095-097-098-100-101-261800- SOUTHERN COAST CITY SKY/WX TMP DP RH WIND PRES REMARKS BEAUFORT SUNNY 86 76 71 SW20G28 30.02F CEDAR ISLAND NOT AVBL JACKSONVILLE PTSUNNY 91 74 57 SW9 30.00F HX 100 PINEY ISLAND NOT AVBL WILMINGTON PTSUNNY 89 74 60 S6 30.03F $$ NCZ011>013-027>030-043-044-078>080-089-090>093-098-261800- COASTAL PLAIN CITY SKY/WX TMP DP RH WIND PRES REMARKS AHOSKIE SUNNY 89 78 68 CALM 29.97F HX 103 CLINTON MOSUNNY 90 77 66 S6 30.02F HX 103 ELIZABETHTOWN MOSUNNY 92 74 56 SW9 30.02F HX 101 GOLDSBORO MOSUNNY 93 77 58 SW8 29.98F HX 106 GREENVILLE SUNNY 91 77 62 W6 29.99F HX 105 HAVELOCK SUNNY 92 74 55 SW15 30.01F HX 101 KENANSVILLE NOT AVBL KINSTON MOSUNNY 93 75 55 SW12 30.00F HX 104 NEW BERN SUNNY 92 75 57 SW13 30.01F HX 103 RICHLANDS SUNNY 94 77 57 SW9 30.01F HX 108 ROCKY MOUNT SUNNY 92 78 63 SW9 29.98F HX 107 WASHINGTON SUNNY 91 77 63 SW12 29.98F HX 103 WHITEVILLE SUNNY 91 73 56 SW8 30.03F $$ AMZ130-135-150-152-154-156-158-170-250-252-270-ANZ085-086-088-633-658-670-261800- MARINE OBSERVATIONS STATION/POSITION TIME TEMP WIND PRES WAVE SWELL AIR SEA DIR/SP/G HT/PER HT/PER (UTC) (F) (DEG/KT/KT) (MB) (FT/S) (FT/S) CHESAPEAKE LIGHT NOT AVBL 64 E VA BEACH 1650 81 81 250/ 8/ 10 1014.3 4/ 6 3/ 6 DUCK 1600 85 60 250/ 10/ 13 1014.4 2 E DUCK 1611 66 N/A 1/ 8 OREGON INLET 1600 86 84 200/ 10/ 11 1015.1 13E OREGON INLT 1700 81 N/A 3/ 6 2/ 6 HATTERAS CG 1600 85 82 220/ 12/ 18 1015.7 DIAMOND BUOY 1650 83 84 240/ 19/ 23 1015.5 5/ 5 2/ 8 CAPE LOOKOUT 1700 86 230/ 13/ 17 1016.3 BEAUFORT LAB 1600 86 83 220/ 5/ 12 1016.3 30 SE NEW RVR IN 1608 84 85 240/ 16/ 19 1017.4 30 SE NEW RVR IN 1625 85 N/A 4/ 5 27 SE WRIGHTSVLE 1608 84 84 240/ 14/ 17 1017.9 5 SE WRIGHTSVLE 1608 82 81 220/ 14/ 17 1018.1 225 S CAPE HAT 1650 84 84 270/ 10/ 12 1019.0 3/ 4 2/ 8 41 SE CHARLESTON 1650 85 86 240/ 10/ 12 1017.6 2/ 4 2/ 8 $$

USA.gov is the U.S. government's official web portal to all federal, state and local government web resources and services.